Location: Unspecified
(42.9300°N, 71.1866°W)
Time: 16:24:36
(UTC-05:00)

Okean 3 - Visible Passes

Search period start: 13 February 2016 00:00
Search period end: 23 February 2016 00:00
Orbit: 578 x 605 km, 82.5° (Epoch: 13 February)

Date Brightness Start Highest point End Pass type
(mag) Time Alt. Az. Time Alt. Az. Time Alt. Az.
13 Feb 6.6 05:49:41 10° SE 05:52:33 18° E 05:55:25 10° NE visible
13 Feb 6.9 19:08:15 10° NW 19:10:15 13° W 19:12:15 10° WSW visible
14 Feb 6.0 05:57:33 10° SSE 06:01:04 27° E 06:04:36 10° NNE visible
14 Feb 3.4 17:37:54 10° N 17:42:08 79° E 17:46:22 10° S visible
15 Feb 5.1 06:05:43 10° SSE 06:09:39 40° E 06:13:35 10° NNE visible
15 Feb 3.9 17:46:36 10° NNW 17:50:47 67° W 17:54:59 10° S visible
16 Feb 4.9 17:55:24 10° NNW 17:59:24 43° W 18:03:25 10° SSW visible
17 Feb 5.8 18:04:19 10° NNW 18:07:59 28° W 18:11:37 10° SSW visible
18 Feb 7.0 04:57:05 10° ESE 04:58:48 12° E 05:00:32 10° ENE visible
18 Feb 6.6 18:13:28 10° NW 18:16:30 19° W 18:19:33 10° SW visible
19 Feb 6.5 05:04:23 10° SE 05:07:17 18° E 05:10:11 10° NE visible
19 Feb 6.9 18:23:02 10° WNW 18:24:59 13° W 18:26:57 10° WSW visible
20 Feb 5.8 05:12:16 10° SSE 05:15:48 27° E 05:19:21 10° NNE visible
21 Feb 4.9 05:20:26 10° SSE 05:24:21 41° E 05:28:18 10° NNE visible
22 Feb 3.9 05:28:50 10° S 05:32:58 65° E 05:37:06 10° NNE visible
